Flag for United Kingdom Weather past 2 weeks in Southampton, England, United Kingdom

54 °F

Passing clouds.

Feels Like: 49 °F
Forecast: N/A
Wind: 14 mph from West

Location: Southampton / Weather Centre

Current Time: Nov 29, 2015 at 10:05:57 PM

Latest Report: Nov 29, 2015 at 9:20 PM

Visibility: N/A

Pressure: 29.98 "Hg

Humidity: 77%

Dew point: 46 °F

Location of SouthamptonLocation

Historic Weather in Southampton — Graph


Southampton temperature yesterday

Maximum temperature yesterday: 50 °F (at 4:20 PM)
Minimum temperature yesterday: 36 °F (at 6:20 AM)
Average temperature yesterday: 47 °F

Past Weeks' High & Low Weather Summary

High59 °F (Nov 17, 1:50 PM)100% (Nov 22, 8:20 AM)30.30 "Hg (Nov 22, 8:20 AM)
Low27 °F (Nov 22, 7:20 AM)42% (Nov 21, 1:20 PM)29.59 "Hg (Nov 17, 1:50 PM)
Average48 °F81%29.91 "Hg
* Reported Nov 14 8:20 PM — Nov 29 8:20 PM, Southampton, Weather by CustomWeather, © 2015

Note: Actual official high and low records may vary slightly from our data, if they occured in-between our weather recording intervals... More about our weather records


Southampton weather history for previous 24 hours

Time TempWeatherWind HumidityBarometerVisibility
8:20 PM
Sun, Nov 29
54 °FPassing clouds.15 mph77%29.95 "HgN/A
7:50 PM54 °FPassing clouds.20 mph72%29.95 "HgN/A
7:20 PM54 °FPassing clouds.17 mph77%29.92 "HgN/A
6:50 PM54 °FPassing clouds.17 mph77%29.92 "HgN/A
6:20 PM54 °FPassing clouds.20 mph77%29.89 "HgN/A
5:50 PM54 °FPassing clouds.22 mph77%29.89 "HgN/A
5:20 PM54 °FPassing clouds.20 mph77%29.89 "HgN/A
4:50 PM54 °FPassing clouds.20 mph77%29.86 "HgN/A
4:20 PM54 °FPartly cloudy.20 mph72%29.86 "HgN/A
3:50 PM54 °FDrizzle. Broken clouds.20 mph72%29.86 "HgN/A
3:20 PM54 °FLight rain. Broken clouds.17 mph77%29.86 "HgN/A
2:50 PM54 °FScattered clouds.20 mph77%29.86 "HgN/A
2:20 PM54 °FScattered clouds.17 mph72%29.86 "HgN/A
1:50 PM54 °FScattered clouds.23 mph77%29.83 "HgN/A
1:20 PM54 °FScattered clouds.23 mph77%29.83 "HgN/A
12:50 PM54 °FScattered clouds.21 mph72%29.83 "HgN/A
12:20 PM54 °FScattered clouds.21 mph72%29.83 "HgN/A
11:50 AM54 °FScattered clouds.22 mph72%29.83 "HgN/A
11:20 AM54 °FScattered clouds.21 mph72%29.83 "Hg5 mi
10:50 AM52 °FScattered clouds.21 mph77%29.83 "HgN/A
10:20 AM52 °FDrizzle. Partly sunny.17 mph77%29.83 "HgN/A
9:20 AM52 °FScattered clouds.15 mph72%29.83 "HgN/A
8:50 AM52 °FScattered clouds.14 mph77%29.80 "HgN/A
8:20 AM50 °FScattered showers. Scattered clouds.13 mph88%29.83 "HgN/A
7:50 AM50 °FLight rain. Partly sunny.13 mph88%29.83 "Hg5 mi
6:50 AM52 °FPassing clouds.15 mph77%29.83 "Hg5 mi
Weather by CustomWeather, © 2015

See weather overviewHow to use our weather pages